Terminal Aerodrome Forecast
Issued by NWS Salt Lake City, UT

Home | Current Version | Previous Version | Text Only | Print | Product List | Glossary On
Versions: 1 2 3 4 5 6 7 8 9 10 11 12 13 14 15 16 17 18 19 20 21 22 23 24 25 26 27 28 29 30
000
FTUS45 KSLC 222331
TAFCDC
TAF
KCDC 222331Z 2300/2324 22010G20KT P6SM FEW150
     FM230400 19009KT P6SM FEW100
     FM231500 22013G19KT P6SM SCT070 BKN100=

USA.gov is the U.S. government's official web portal to all federal, state and local government web resources and services.